{"data":{"norad_id":59517,"intl_designator":"2024-073G","name":"STARLINK-31674","alt_names":[],"object_type":"PAYLOAD","status":"ACTIVE","operator":null,"country":"US","launch_date":"2024-04-17","launch_site_code":"AFETR","launch_vehicle":null,"mission":null,"orbit_class":"UNKNOWN","rcs_meters":null,"size_class":null,"mass_kg":null,"dimensions":null,"purposes":["comms"],"wikipedia_slug":null,"has_3d_model":false,"image_url":null,"decayed_at":null,"tle_current":{"epoch":"2026-09-21T08:55:03.218592Z","epoch_age_seconds":89615,"freshness":"FRESH","line1":"1 59517U 24073G   26264.37156503  .00000356  00000+0  22467-4 0  9991","line2":"2 59517  43.0028 292.8279 0001200 272.6898  87.3816 15.27577740136109","mean_motion":15.2757774,"eccentricity":0.00012,"inclination_deg":43.0028,"raan_deg":292.8279,"arg_perigee_deg":272.6898,"mean_anomaly_deg":87.3816,"bstar":2.2467e-5,"rev_number":13610,"period_min":94.266888178143,"perigee_km":482.23252015743,"apogee_km":483.87920644462,"semimajor_km":6861.192863301,"source":"CELESTRAK","updated_at":"2026-09-22T09:00:48.963575Z"}}}